Probability
0 0 0 0 0 0 0 0 0 0 0 0 0 0 0 0 0 0 0 0 0 0 0 0 0 0 0 0 0 0 0 0 0 0 0 0 0 0 0 0 0 0 0
0 0 0 0 0 0 0 0 0 0 0 0 0 0 0 0 0 0 0 0 0 0 0 0 0 0 0 0 0 0 0 0 0 0 0 0 0 0 0 0 0 0 0
0 0 0 0 0 0 0 0 0 0 0 0 0 0 0 0 0 0 0 0 0 0 0 0 0 0 0 0 0 0 0 0 0 0 0 0 0 0 0 0 0 0 0
0 0 0 0 0 0 0 0 0 0 0 0 0 0 0 0 0 0 0 0 0 0 0 0 0 0 0 0 0 0 0 0 0 0 0 0 0 0 0 0 0 0 0
0 0 0 0 0 0 0 0 0 0 0 0 0 0 0 0 0 0 0 0 0 0 0 0 0 0 0 0 0 0 0 0 0 0 0 0 0 0 0 0 0 0 0
0 0 0 0 0 0 0 0 0 0 0 0 0 0 0 0 0 0 0 0 0 0 0 0 0 0 0 0 0 0 0 0 0 0 0 0 0 0 0 0 0 0 0
0 0 0 0 0 0 0 0 0 0 0 0 0 0 0 0 0 0 0 0 0 0 0 0 0 0 0 0 0 0 0 0 0 0 0 0 0 0 0 0 0 0 0
0 0 0 0 0 0 0 0 0 0 0 0 0 0 0 0 0 0 0 0 0 0 0 0 0 0 0 0 0 0 0 0 0 0 0 0 0 0 0 0 0 0 0
0 0 0 0 0 0 0 0 0 0 0 0 0 0 0 0 0 0 0 0 0 0 0 0 0 0 0 0 0 0 0 0 0 0 0 0 0 0 0 0 0 0 0
0 0 0 0 0 0 0 0 0 0 0 0 0 0 0 0 0 0 0 0 0 0 0 0 0 0 0 0 0 0 0 0 0 0 0 0 0 0 0 0 0 0 0
0 0 0 0 0 0 0 0 0 0 0 0 0 0 0 0 0 0 0 0 0 0 0 0 0 0 0 0 0 0 0 0 0 0 0 0 0 0 0 0 0 0 0
0 0 0 0 0 0 0 0 0 0 0 0 0 0 0 0 0 0 0 0 0 0 0 0 0 0 0 0 0 0 0 0 0 0 0 0 0 0 0 0 0 0 0
0 0 0 0 0 0 0 0 0 0 0 0 0 0 0 0 0 0 0 0 0 0 0 0 0 0 0 0 0 0 0 0 0 0 0 0 0 0 0 0 0 0 0
0 0 0 0 0 0 0 0 0 0 0 0 0 0 0 0 0 0 0 0 0 0 0 0 0 0 0 0 0 0 0 0 0 0 0 0 0 0 0 0 0 0 0
0 0 0 0 0 0 0 0 0 0 0 0 0 0 0 0 0 0 0 0 0 0 0 0 0 0 0 0 0 0 0 0 0 0 0 0 0 0 0 0 0 0 0
0 0 0 0 0 0 0 0 0 0 0 0 0 0 0 0 0 0 0 0 0 0 0 0 0 0 0 0 0 0 0 0 0 0 0 0 0 0 0 0 0 0 0
0 0 0 0 0 0 0 0 0 0 0 0 0 0 0 0 0 0 0 0 0 0 0 0 0 0 0 0 0 0 0 0 0 0 0 0 0 0 0 0 0 0 0
0 0 0 0 0 0 0 0 0 0 0 0 0 0 0 0 0 0 0 0 0 0 0 0 0 0 0 0 0 0 0 0 0 0 0 0 0 0 0 0 0 0 0
0 0 0 0 0 0 0 0 0 0 0 0 0 0 0 0 0 0 0 0 0 0 0 0 0 0 0 0 0 0 0 0 0 0 0 0 0 0 0 0 0 0 0
0 0 0 0 0 0 0 0 0 0 0 0 0 0 0 0 0 0 0 0 0 0 0 0 0 0 0 0 0 0 0 0 0 0 0 0 0 0 0 0 0 0 0
0 0 0 0 0 0 0 0 0 0 0 0 0 0 0 0 0 0 0 0 0 0 0 0 0 0 0 0 0 0 0 0 0 0 0 0 0 0 0 0 0 0 0
0 0 0 0 0 0 0 0 0 0 0 0 0 0 0 0 0 0 0 0 0 0 0 0 0 0 0 0 0 0 0 0 0 0 0 0 0 0 0 0 0 0 0
0 0 0 0 0 0 0 0 0 0 0 0 0 0 0 0 0 0 0 0 0 0 0 0 0 0 0 0 0 0 0 0 0 0 0 0 0 0 0 0 0 0 0
0 0 0 0 0 0 0 0 0 0 0 0 0 0 0 0 0 0 0 0 0 0 0 0 0 0 0 0 0 0 0 0 0 0 0 0 0 0 0 0 0 0 0
0 0 0 0 0 0 0 0 0 0 0 0 0 0 0 0 0 0 0 0 0 0 0 0 0 0 0 0 0 0 0 0 0 0 0 0 0 0 0 0 0 0 0
0 0 0 0 0 0 0 0 0 0 0 0 0 0 0 0 0 0 0 0 0 0 0 0 0 0 0 0 0 0 0 0 0 0 0 0 0 0 0 0 0 0 0
Height
5708 5708 5708 5708 5708 5708 5708 5707 5706 5706 5705 5704 5703 5701 5700 5698 5696 5694 5691 5689 5686 5682 5679 5675 5671 5667 5663 5659 5654 5650 5645 5641 5637 5633 5627 5622 5616 5611 5606 5600 5595 5590 5584
5699 5699 5700 5700 5700 5699 5699 5699 5698 5697 5696 5695 5694 5693 5691 5689 5687 5685 5682 5679 5676 5672 5669 5665 5661 5657 5652 5648 5643 5639 5634 5629 5624 5620 5615 5609 5603 5597 5592 5586 5580 5574 5567
5690 5691 5691 5691 5691 5691 5691 5690 5689 5689 5688 5686 5685 5684 5682 5680 5678 5675 5672 5669 5666 5662 5658 5654 5650 5646 5641 5636 5632 5627 5622 5616 5611 5606 5602 5595 5589 5582 5576 5571 5564 5557 5549
5682 5683 5683 5683 5683 5683 5682 5682 5681 5680 5679 5678 5676 5674 5673 5670 5668 5665 5663 5659 5656 5652 5648 5643 5639 5634 5630 5625 5620 5614 5609 5603 5597 5592 5587 5581 5574 5566 5560 5553 5547 5539 5531
5674 5675 5675 5675 5675 5674 5674 5673 5672 5671 5670 5668 5667 5665 5663 5661 5658 5655 5653 5649 5645 5641 5637 5632 5628 5623 5617 5612 5607 5601 5595 5589 5583 5577 5571 5565 5557 5549 5542 5535 5528 5521 5513
5667 5667 5667 5667 5667 5666 5665 5665 5664 5662 5661 5660 5658 5656 5654 5651 5648 5645 5642 5638 5634 5630 5626 5621 5616 5610 5605 5599 5593 5587 5581 5574 5567 5561 5555 5547 5540 5531 5523 5515 5507 5500 5494
5659 5659 5659 5659 5658 5658 5657 5656 5655 5654 5652 5650 5648 5646 5644 5641 5638 5635 5631 5627 5623 5619 5614 5609 5604 5598 5592 5586 5580 5574 5566 5557 5550 5543 5536 5528 5520 5512 5503 5496 5487 5478 5471
5651 5651 5651 5651 5650 5649 5648 5647 5646 5645 5643 5641 5639 5636 5633 5630 5627 5624 5620 5616 5612 5607 5602 5597 5591 5585 5578 5572 5566 5559 5551 5542 5533 5525 5517 5509 5500 5491 5482 5474 5466 5458 5451
5643 5643 5643 5642 5642 5641 5640 5639 5637 5635 5633 5631 5629 5626 5623 5620 5616 5613 5609 5605 5600 5595 5590 5584 5578 5571 5564 5557 5551 5544 5537 5527 5517 5507 5499 5489 5479 5470 5460 5452 5445 5437 5431
5635 5635 5635 5634 5633 5632 5631 5629 5628 5626 5624 5621 5619 5616 5613 5609 5605 5601 5597 5593 5589 5583 5577 5571 5564 5557 5549 5541 5534 5526 5518 5510 5501 5491 5481 5471 5461 5451 5441 5432 5425 5418 5411
5627 5627 5627 5626 5625 5624 5622 5620 5619 5616 5614 5611 5609 5605 5602 5598 5594 5590 5585 5581 5576 5570 5564 5557 5550 5542 5534 5525 5516 5508 5499 5491 5482 5473 5464 5454 5443 5433 5424 5416 5407 5400 5394
5619 5619 5618 5617 5616 5614 5613 5611 5609 5606 5604 5601 5598 5595 5591 5587 5583 5578 5573 5568 5563 5557 5550 5543 5535 5526 5518 5509 5499 5490 5480 5471 5463 5454 5445 5435 5426 5417 5409 5401 5393 5385 5379
5611 5610 5609 5608 5607 5605 5603 5601 5599 5596 5594 5591 5587 5584 5580 5575 5571 5566 5561 5555 5549 5542 5535 5527 5519 5511 5501 5492 5482 5472 5462 5453 5443 5435 5426 5418 5410 5402 5394 5386 5379 5372 5367
5602 5601 5600 5599 5597 5596 5594 5591 5589 5586 5583 5580 5577 5573 5569 5564 5559 5554 5548 5541 5535 5527 5520 5512 5503 5494 5484 5474 5464 5454 5444 5434 5425 5417 5409 5402 5394 5387 5380 5373 5367 5361 5356
5593 5592 5591 5590 5588 5586 5584 5582 5579 5576 5573 5569 5566 5562 5557 5552 5547 5541 5534 5528 5520 5512 5504 5496 5487 5477 5467 5458 5447 5437 5427 5417 5408 5400 5393 5386 5379 5373 5366 5360 5355 5350 5346
5584 5583 5582 5580 5579 5576 5574 5571 5568 5565 5562 5558 5554 5550 5545 5540 5533 5527 5520 5512 5504 5496 5488 5479 5470 5460 5450 5441 5431 5421 5411 5402 5393 5386 5378 5372 5365 5360 5354 5349 5344 5340 5337
5575 5574 5572 5571 5569 5566 5564 5561 5558 5555 5551 5547 5542 5537 5532 5526 5519 5512 5505 5497 5488 5480 5471 5461 5452 5442 5433 5423 5414 5405 5396 5388 5380 5372 5365 5359 5353 5348 5343 5339 5335 5332 5329
5566 5565 5563 5561 5559 5556 5554 5551 5547 5544 5540 5535 5530 5524 5518 5512 5505 5497 5489 5481 5472 5463 5453 5444 5434 5425 5416 5407 5398 5390 5382 5374 5367 5360 5353 5348 5342 5338 5334 5330 5327 5324 5322
5556 5555 5553 5551 5549 5546 5543 5540 5536 5532 5528 5523 5517 5511 5505 5497 5490 5482 5473 5465 5456 5446 5436 5427 5418 5409 5400 5392 5384 5377 5369 5362 5355 5349 5343 5337 5332 5329 5325 5323 5320 5318 5316
5547 5545 5543 5541 5539 5536 5533 5529 5525 5521 5516 5511 5505 5498 5491 5483 5475 5467 5458 5449 5439 5430 5420 5411 5403 5394 5387 5379 5372 5364 5357 5351 5344 5339 5333 5328 5324 5320 5318 5315 5313 5312 5310
5537 5535 5533 5531 5529 5525 5522 5518 5514 5509 5503 5498 5491 5484 5477 5469 5461 5452 5443 5433 5423 5414 5405 5397 5389 5381 5374 5367 5360 5353 5347 5341 5335 5329 5324 5320 5316 5313 5311 5309 5308 5307 5306
5527 5526 5523 5521 5518 5515 5511 5506 5502 5496 5491 5484 5477 5470 5462 5454 5445 5436 5426 5417 5408 5399 5391 5384 5376 5369 5362 5356 5349 5343 5337 5331 5326 5321 5316 5312 5309 5306 5304 5303 5302 5302 5301
5518 5516 5513 5510 5507 5503 5499 5494 5489 5484 5477 5471 5463 5456 5447 5438 5429 5420 5411 5402 5393 5385 5378 5371 5364 5357 5351 5345 5339 5333 5328 5323 5318 5313 5309 5306 5303 5301 5299 5298 5298 5298 5298
5508 5505 5502 5499 5496 5492 5487 5482 5477 5471 5464 5457 5449 5441 5433 5424 5415 5405 5397 5388 5380 5373 5366 5359 5352 5346 5340 5334 5329 5324 5319 5314 5310 5306 5303 5300 5298 5296 5295 5294 5294 5294 5294
5497 5495 5491 5488 5484 5480 5475 5470 5464 5458 5451 5443 5435 5427 5418 5409 5401 5392 5384 5376 5368 5361 5355 5348 5342 5336 5330 5325 5320 5315 5311 5307 5303 5300 5297 5295 5293 5292 5291 5290 5290 5290 5291
5487 5484 5480 5476 5472 5467 5462 5457 5451 5444 5437 5429 5421 5412 5404 5395 5387 5379 5371 5364 5357 5350 5344 5339 5333 5327 5322 5317 5312 5308 5304 5301 5298 5295 5293 5291 5289 5288 5287 5287 5287 5287 5288
Wind_Speed
32 33 33 33 33 33 34 34 35 35 36 36 36 37 37 37 37 38 39 40 41 42 43 43 44 46 47 48 48 48 48 49 49 49 50 52 53 54 55 57 58 59 60
31 31 31 32 32 32 33 34 34 35 35 35 36 36 37 37 38 39 40 40 41 42 43 44 46 47 47 48 49 49 50 50 51 51 53 54 55 57 58 59 60 62 64
29 29 30 30 30 31 32 33 33 33 34 35 36 36 37 37 38 39 40 41 42 43 44 45 46 47 48 49 50 50 51 53 54 55 55 57 58 59 60 62 64 66 67
28 28 29 29 30 30 31 32 32 33 34 34 35 36 37 38 39 40 40 41 42 44 45 46 47 49 50 50 51 52 54 55 56 57 58 59 61 63 65 66 67 69 70
27 27 28 28 29 30 31 31 32 32 33 34 35 36 37 38 39 39 40 42 43 44 46 47 49 50 51 52 53 54 56 57 59 60 61 63 65 67 69 70 71 71 71
26 26 27 28 28 29 30 31 32 32 33 34 35 36 37 38 39 40 41 43 44 45 47 49 50 52 52 54 55 56 58 60 61 63 65 67 69 71 72 72 73 73 73
26 26 27 27 28 29 30 31 32 32 33 34 36 37 38 39 40 41 42 44 45 47 49 50 52 53 54 55 57 59 61 63 66 68 69 71 73 73 74 74 75 75 75
26 26 27 27 28 29 30 31 32 33 34 35 36 38 39 40 41 42 43 44 46 48 50 52 53 54 56 58 59 61 63 66 68 71 72 73 74 74 75 75 75 74 72
26 26 27 28 28 29 30 31 33 34 35 36 37 38 39 40 41 43 44 46 47 49 51 53 54 56 59 61 63 64 66 68 70 72 73 74 74 75 75 75 73 72 68
26 27 27 28 29 30 31 32 33 34 35 36 38 39 40 41 43 44 45 46 48 50 52 54 57 59 61 63 65 67 69 70 71 72 73 74 74 74 73 72 71 68 65
26 27 28 29 30 31 32 33 34 35 36 37 38 39 41 42 43 45 47 48 50 52 54 56 59 61 63 66 68 70 71 72 73 73 73 73 71 70 69 68 65 63 59
27 28 29 30 31 31 33 34 35 36 37 38 39 40 41 43 44 46 48 50 52 54 56 59 61 64 66 68 70 71 73 73 73 73 71 69 67 65 64 62 59 57 54
28 29 30 30 31 32 33 34 35 36 37 38 39 40 42 43 45 47 50 52 54 56 59 61 63 66 68 70 71 72 73 73 73 71 67 64 63 61 59 57 54 51 48
29 30 31 31 32 33 34 35 36 37 38 38 39 41 42 44 47 49 52 54 56 59 61 63 65 68 70 71 71 72 73 72 69 66 63 61 59 57 54 52 49 46 43
30 31 31 32 32 33 34 35 36 37 38 39 40 42 44 46 49 52 54 56 58 60 63 65 67 69 69 70 71 71 70 67 64 62 60 58 55 53 50 48 44 41 38
30 30 31 32 33 34 35 35 36 37 38 40 42 44 46 49 51 54 56 58 60 62 65 67 68 69 69 70 69 67 64 61 60 58 56 53 50 48 46 43 39 36 34
29 30 31 32 33 34 35 35 36 38 40 42 44 46 48 51 53 55 57 60 62 65 67 68 69 69 68 67 64 61 58 57 55 53 51 48 46 43 40 37 34 32 30
30 31 32 32 33 34 35 36 38 39 41 43 46 48 50 52 55 57 59 62 65 67 67 67 67 66 64 61 58 56 54 52 51 48 46 44 42 39 35 33 31 28 26
30 31 32 33 34 35 36 37 39 41 43 45 47 50 52 54 56 59 61 64 65 66 66 65 63 61 58 55 54 53 50 48 46 44 42 40 37 34 32 29 27 24 21
31 31 32 33 34 35 37 38 40 43 45 47 49 52 54 56 58 61 63 64 65 64 63 61 58 56 54 52 51 49 46 44 42 41 39 36 33 31 28 25 23 20 18
31 32 33 34 35 37 38 40 42 45 47 49 51 54 56 58 60 62 63 64 63 61 59 57 54 52 51 49 47 44 42 41 39 37 35 32 30 27 24 21 19 17 15
31 32 33 35 36 38 40 42 45 46 48 51 53 55 57 59 61 62 63 62 61 58 55 53 51 49 47 46 44 41 39 38 36 34 32 29 26 23 21 18 16 15 14
32 33 35 36 38 40 42 44 46 48 50 52 55 56 58 60 61 61 60 59 56 53 52 50 48 47 45 43 41 39 37 35 33 31 28 26 23 20 17 15 14 13 13
33 35 36 38 40 42 43 45 47 49 52 54 56 58 59 60 60 59 57 55 52 50 49 47 45 43 42 39 38 36 34 32 30 27 25 22 20 17 15 14 13 12 11
35 36 38 40 41 43 44 46 48 51 54 56 57 58 59 58 58 56 55 53 50 47 45 43 41 40 37 36 34 33 31 28 25 23 21 19 17 15 14 13 12 11 10
36 38 39 40 42 44 46 48 51 54 56 57 58 58 57 56 55 54 53 50 46 44 41 40 38 36 34 32 30 28 26 24 22 20 18 16 15 14 12 11 11 10 10
Wind_Direction
264 265 266 266 267 268 269 270 270 271 273 274 275 277 279 281 282 284 286 288 290 291 293 294 295 296 297 297 298 298 298 297 297 297 298 298 297 297 296 296 296 295 295
264 265 266 266 267 267 268 269 270 272 273 274 276 278 280 282 284 285 287 289 290 292 293 294 296 297 297 297 298 298 298 298 298 298 299 298 298 298 297 297 297 296 296
264 265 266 267 267 268 269 270 271 272 274 276 278 279 281 282 284 286 288 290 291 292 293 295 296 296 297 297 298 298 299 299 299 299 299 299 299 298 298 298 298 297 297
265 266 266 267 267 268 270 271 272 274 275 277 278 279 281 283 285 287 288 289 291 292 293 294 295 297 297 298 299 299 300 300 300 300 300 300 299 299 299 299 299 298 297
265 266 267 267 269 270 271 272 273 274 276 277 279 280 282 284 286 287 288 290 291 292 294 295 296 297 298 298 299 300 300 300 300 300 300 300 300 300 299 299 299 298 297
266 267 268 269 269 271 272 273 274 276 277 279 281 282 284 285 286 288 289 291 292 293 295 296 297 298 298 299 300 301 301 301 300 300 301 301 301 300 300 300 299 299 298
266 267 268 269 270 271 273 275 276 278 280 281 282 283 284 286 287 289 290 291 293 294 295 296 298 299 299 300 301 301 301 301 301 302 302 302 301 301 300 300 300 300 300
266 267 268 270 272 274 275 277 278 280 281 282 283 284 286 287 288 290 291 292 294 295 296 298 298 299 299 300 301 301 302 302 302 302 302 302 302 302 301 301 301 300 301
265 267 269 272 274 276 278 279 280 281 282 283 284 286 287 288 289 291 292 294 295 296 297 298 299 299 300 301 302 302 302 302 302 303 303 303 303 302 302 302 302 301 301
266 268 271 274 276 278 279 280 281 282 283 284 286 287 288 290 291 292 293 295 296 297 298 299 300 301 301 302 302 303 303 303 303 304 304 304 303 303 302 302 302 302 302
267 270 273 275 278 279 280 281 282 284 285 286 287 289 290 291 292 293 295 296 297 298 299 300 301 302 302 303 303 304 304 304 304 304 304 304 303 302 302 302 303 303 303
269 272 275 277 279 280 282 283 284 286 287 288 289 290 291 292 293 295 296 297 299 300 301 301 302 303 303 304 304 304 304 305 305 305 304 304 303 303 303 303 303 303 302
271 274 276 278 280 282 283 285 286 287 289 289 290 291 293 294 295 296 298 299 300 301 302 302 303 304 304 304 304 305 305 305 305 304 304 303 303 304 304 303 304 303 302
272 275 277 279 281 283 285 286 287 289 290 290 291 293 294 296 297 298 299 300 301 302 303 304 304 305 305 305 305 306 306 305 305 304 304 304 304 304 304 304 304 302 302
273 276 278 281 283 285 286 288 289 290 291 292 293 294 296 297 298 299 301 301 302 303 304 305 305 305 305 306 306 306 306 305 305 305 305 304 304 304 304 304 303 302 301
274 277 279 282 284 286 288 289 291 291 292 294 295 297 298 299 300 301 302 303 304 305 305 306 306 306 306 306 306 306 306 305 305 305 305 305 304 304 304 303 302 301 300
276 279 282 284 286 288 289 291 292 293 295 296 298 299 300 302 303 304 304 305 306 306 306 307 307 307 307 307 306 306 306 306 306 306 306 305 305 304 303 302 302 301 300
278 281 283 286 288 289 291 292 294 296 298 299 301 302 303 304 305 305 306 307 307 307 308 308 308 307 307 307 307 307 307 307 307 307 306 306 305 304 302 301 301 300 299
280 283 285 287 289 291 293 295 297 299 300 302 303 304 305 306 306 307 308 308 308 309 309 309 308 308 308 308 308 308 308 308 308 308 307 306 305 303 301 300 299 297 296
281 284 287 289 291 293 296 297 299 301 302 304 305 306 307 307 308 308 309 309 310 310 310 309 309 309 309 309 310 310 309 309 308 308 308 306 305 303 301 297 295 293 292
283 286 288 290 293 295 298 300 302 303 304 305 307 308 308 309 309 310 310 310 310 310 310 310 309 309 310 311 311 310 310 310 310 309 308 306 305 303 299 294 290 288 288
285 288 290 293 296 298 300 302 303 305 306 307 309 309 310 310 311 311 311 311 311 311 310 310 310 310 310 310 310 310 310 310 310 309 309 307 305 301 297 291 285 282 283
288 290 293 295 298 300 301 303 304 306 308 309 310 311 311 312 312 312 312 312 312 311 311 311 310 310 309 309 309 309 309 309 309 309 308 307 304 300 294 287 282 278 278
290 292 295 297 299 301 302 304 306 308 309 310 311 312 312 313 313 313 313 313 312 311 311 311 311 311 310 309 309 309 310 309 308 308 308 306 303 298 291 284 278 274 271
292 294 296 298 300 302 304 305 307 309 311 312 312 312 313 313 313 313 313 313 312 311 311 311 312 313 312 310 310 310 310 309 309 308 307 305 302 296 290 281 273 268 263
293 296 297 299 301 303 305 307 308 310 312 312 312 313 313 313 313 313 314 313 312 311 311 311 312 313 313 313 312 312 312 311 310 307 306 304 301 296 288 278 270 264 258